This demonstration page uses our WeatherBlox Daily Observations layout. Learn more.

Left ArrowRight Arrow

Hourly Observations for October 22, 2021

Temp ( °F °C ) Dew Point ( °F °C ) Humidity (%) Winds ( mph kmh ) Pressure ( in mb ) Visibility ( mi km ) Precip ( " mm )
12:53 am 00:53 Clear 32 undefined 20 -6.7 61 61 N N/A 30.05 1018 10 16 N/A
1:53 am 01:53 Clear 31 -0.6 21 -6.1 67 67 SW 8 13 30.04 1017 10 16 N/A
2:53 am 02:53 Clear 30 -1.1 21 -6.1 69 69 NW 5 7 30.03 1017 10 16 N/A
3:53 am 03:53 Clear 27 -2.8 19 -7.2 72 72 SSW 3 6 30.03 1017 10 16 N/A
4:53 am 04:53 Clear 24 -4.4 17 -8.3 75 75 WSW 5 7 30.03 1017 10 16 N/A
5:53 am 05:53 Clear 25 -3.9 18 -7.8 75 75 SE 5 7 30.01 1016 10 16 N/A
6:53 am 06:53 Clear 29 -1.7 23 -5 78 78 ENE 8 13 30.01 1016 10 16 N/A
7:53 am 07:53 Sunny 32 undefined 25 -3.9 75 75 E 13 20 29.98 1015 10 16 N/A
8:53 am 08:53 Sunny 33 0.6 25 -3.9 72 72 E 8 13 29.99 1016 10 16 N/A
9:53 am 09:53 Sunny 38 3.3 26 -3.3 62 62 E 12 19 29.96 1015 10 16 N/A
10:53 am 10:53 Sunny 45 7.2 29 -1.7 54 54 ENE 13 20 29.92 1013 10 16 N/A
11:53 am 11:53 Sunny 53 11.7 31 -0.6 43 43 ENE 17 28 29.87 1012 10 16 N/A
12:53 pm 12:53 Sunny 57 13.9 31 -0.6 37 37 ENE 17 28 29.84 1010 10 16 N/A
1:53 pm 13:53 Sunny 63 17.2 32 undefined 31 31 E 15 24 29.79 1009 10 16 N/A
2:53 pm 14:53 Sunny 65 18.3 31 -0.6 28 28 E 23 37 29.75 1008 10 16 N/A
3:53 pm 15:53 Sunny 65 18.3 31 -0.6 28 28 E 22 35 29.75 1007 10 16 N/A
4:53 pm 16:53 Sunny 64 17.8 30 -1.1 28 28 E 18 30 29.73 1007 10 16 N/A
5:53 pm 17:53 Sunny 59 15 31 -0.6 35 35 E 23 37 29.73 1007 10 16 N/A
6:53 pm 18:53 Clear 55 12.8 32 undefined 42 42 E 21 33 29.72 1006 10 16 N/A
7:53 pm 19:53 Clear 52 11.1 33 0.6 49 49 E 22 35 29.70 1006 10 16 N/A
8:53 pm 20:53 Clear 50 10 33 0.6 52 52 E 25 41 29.68 1005 10 16 N/A
9:53 pm 21:53 Mostly Cloudy 49 9.4 34 1.1 56 56 E 23 37 29.65 1004 10 16 N/A
10:53 pm 22:53 Mostly Cloudy 48 8.9 35 1.7 61 61 E 20 31 29.63 1003 10 16 N/A
11:53 pm 23:53 Mostly Cloudy 47 8.3 36 2.2 66 66 E 18 30 29.60 1002 10 16 N/A

Powered by AerisWeather